Location: Unspecified
(0.0000°N, 0.0000°E)
Time: 14:46:08
(UTC+00:00)

A-11 Canister half - Pass Details

Date: 24 May 2026
Orbit: 1515 x 1685 km, 47.2° (Epoch: 8 June)

Event Time Altitude Azimuth Distance (km) Brightness Sun altitude
Rises 04:53:24 0° 305° (NW) 4,660 11.2 -14.8°
Reaches altitude 10° 04:56:36 10° 299° (WNW) 3,693 10.6 -14.1°
Maximum altitude 05:05:17 44° 230° (SW) 2,048 9.2 -12.0°
Drops below altitude 10° 05:14:19 10° 160° (SSE) 3,813 11.1 -9.9°
Sets 05:17:42 0° 153° (SSE) 4,825 11.7 -9.1°
